Simultaneous Nadir Overpasses (SNOs) Predictions

Prediction of SNOs between AQUA and GOES-15 Satellite Orbit:

Table of predicted SNOs for the next 14.0 days since TLE Epoch: 8/24/2012
Index Date Time (AQUA) AQUA Lat,Lon GOES-15 Lat,Lon Distance(km) Time Diff (sec)
1 08/25/2012 22:22:34 0.11,-131.84 -0.42,-134.39 289.84 80
2 08/26/2012 10:43:50 0.94,-137.00 0.41,-134.38 297.55 80
3 08/28/2012 10:31:38 0.34,-134.04 0.40,-134.28 27.29 80
4 08/30/2012 10:19:26 -0.26,-131.08 0.40,-134.18 352.15 80
5 08/30/2012 22:40:50 -0.85,-136.27 -0.39,-134.13 243.91 80
6 09/01/2012 22:28:38 -0.23,-133.31 -0.39,-134.02 80.97 80
7 09/03/2012 22:16:25 0.35,-130.35 -0.39,-133.92 405.59 80
8 09/04/2012 10:37:41 0.71,-135.51 0.38,-133.92 180.99 80
9 09/06/2012 10:25:28 0.13,-132.54 0.38,-133.80 142.70 80
10 09/06/2012 22:46:52 -1.23,-137.74 -0.36,-133.73 455.21 80




NCC Satellite Simultaneous Nadir Overpasses (SNOs) Prediction Service
